Location: Newark
(45.5000°N, 11.4167°E)
Time: 19:04:05
(UTC+00:00)

A-11 Canister half - Pass Details

Date: 26 August 2019
Orbit: 1514 x 1686 km, 47.2° (Epoch: 18 October)

Event Time Altitude Azimuth Distance (km) Brightness Sun altitude
Rises 16:30:26 0° 236° (SW) 4,658 12.5 15.4°
Reaches altitude 10° 16:33:26 10° 234° (SW) 3,689 12.1 14.8°
Maximum altitude 16:42:41 72° 153° (SSE) 1,627 9.3 13.2°
Drops below altitude 10° 16:52:17 10° 72° (ENE) 3,817 10.6 11.5°
Sets 16:55:26 0° 70° (ENE) 4,828 11.0 11.0°
